Location: Balagbag Mahabang Kahoy
(14.1562°N, 120.9200°E)
Time: 05:14:10
(UTC+00:00)

Okean 3 - Pass Details

Date: 16 January 2026
Orbit: 541 x 564 km, 82.5° (Epoch: 14 February)

Event Time Altitude Azimuth Distance (km) Brightness Sun altitude
Rises 21:33:19 0° 2° (N) 2,690 6.7 -12.5°
Reaches altitude 10° 21:35:30 10° 6° (N) 1,798 5.8 -12.0°
Maximum altitude 21:39:23 57° 85° (E) 639 4.0 -11.1°
Drops below altitude 10° 21:43:16 10° 164° (SSE) 1,800 6.4 -10.2°
Sets 21:45:27 0° 169° (SSE) 2,693 7.3 -9.7°
